#timestamp,LO_Frequency,Hit,StdDev 
1667181615.2,286046997.2,N
1667181635.1,286046997.5,N
1667181636.0,286046997.5,N
1667181655.8,286046999.1,N
1667181675.6,286046996.6,N
1667181695.5,286046997.4,N
1667181745.4,286046999.6,E
1667181755.3,286046997.0,N
1667181775.1,286046999.1,P
1667181795.8,286046998.3,N
1667181815.7,286046998.4,N
1667181835.5,286046999.5,N
1667181855.4,286046999.1,N
1667181875.2,286046996.9,Y
1667181895.0,286046998.2,P
1667181895.9,286046998.2,P
1667181915.8,286046996.6,P
1667181935.6,286046999.3,N
1667181955.5,286046998.7,N
1667181975.3,286047000.7,N
1667181995.1,286046999.0,N
1667182015.9,286046997.3,N
1667182035.7,286046997.7,N
1667182055.6,286046997.8,N
1667182075.4,286046997.4,N
1667182095.2,286046996.7,Y
1667182115.1,286046998.2,P
1667182116.0,286046998.2,P
1667182135.8,286046998.6,P
1667182155.7,286047001.1,Y
1667182175.5,286047001.7,P
1667182195.3,286047001.4,N
1667182215.2,286047004.3,N
1667182235.0,286047003.7,N
1667182235.9,286047003.7,N
1667182255.8,286047003.8,N
1667182275.6,286047004.1,N
1667182295.4,286047004.3,N
1667182315.3,286047001.5,N
1667182335.1,286047004.2,N
1667182355.8,286047003.8,N
1667182375.7,286047005.6,Y
1667182395.5,286047004.3,P
1667182415.4,286047004.1,P
1667182435.2,286047002.5,P
1667182455.0,286047002.4,Y
1667182455.9,286047002.4,P
1667182475.8,286046996.2,P
1667182495.6,286046995.2,N
1667182515.5,286046995.1,N
1667182535.3,286046995.0,N
1667182555.1,286046996.2,N
1667182575.9,286046992.1,N
1667182595.7,286046992.7,N
1667182615.5,286046993.1,N
1667182635.4,286046994.3,N
1667182655.2,286046994.4,N
1667182675.1,286046993.6,N
1667182676.0,286046993.6,N
1667182695.8,286046995.2,N
1667182715.6,286046993.3,N
1667182735.5,286046996.4,N
1667182755.3,286046992.1,N
1667182775.1,286046994.0,N
1667182795.9,286046993.5,N
1667182815.7,286046995.4,N
1667182835.6,286046997.3,N
1667182855.4,286046996.2,N
1667182875.2,286046997.7,N
1667182895.1,286046996.6,N
1667182896.0,286046996.6,N
1667182915.8,286046999.2,N
1667182935.6,286046997.3,N
1667182955.5,286046996.2,N
1667182975.3,286046996.4,N
1667182995.2,286046995.7,N
1667183015.9,286046995.9,N
1667183035.7,286046997.7,N
1667183055.6,286046995.2,N
1667183075.4,286046996.2,N
1667183095.3,286046997.5,N
1667183115.1,286046996.8,N
1667183116.0,286046996.8,N
1667183135.8,286046998.7,N
1667183155.7,286047000.8,N
1667183175.5,286046998.1,N
1667183195.3,286047001.1,N
1667183215.2,286046998.2,N
1667183235.0,286046997.0,N
1667183235.9,286046997.0,N
1667183255.8,286046997.1,N
1667183275.6,286046997.9,N
1667183295.4,286046996.8,N
1667183315.3,286046998.7,N
1667183335.1,286046999.6,N
1667183355.9,286046999.1,N
1667183375.7,286046999.3,N
1667183395.5,286046998.7,N
1667183415.4,286046998.8,N
1667183435.2,286046998.8,N
1667183455.0,286046997.2,N
1667183456.0,286046997.2,N
1667183475.8,286046996.6,N
1667183495.6,286046997.1,N
1667183515.5,286046995.2,Y
1667183535.3,286046999.5,P
1667183555.1,286046996.6,P
1667183575.9,286046996.8,N
1667183595.7,286047011.9,Y
1667183615.6,286047002.7,P
1667183635.4,286047004.0,N
1667183655.2,286047001.5,N
1667183675.1,286047004.3,N
1667183676.0,286047004.3,N
1667183695.8,286047002.8,N
1667183715.7,286046998.3,N
1667183735.5,286046998.2,N
1667183755.3,286047000.0,N
1667183775.2,286047000.7,N
1667183795.0,286047000.3,N
1667183795.9,286047000.3,N
1667183815.8,286047000.2,N
1667183835.6,286047002.2,N
1667183855.4,286047003.5,N
1667183875.3,286047004.4,N
1667183895.1,286047004.4,N
1667183915.9,286047001.3,N
1667183935.7,286047003.6,N
1667183955.5,286047006.0,N
1667183975.4,286047005.6,N
1667183995.2,286047005.5,N
1667184015.0,286047005.5,N
1667184015.9,286047005.5,N
1667184035.8,286047003.8,N
1667184055.6,286047003.8,N
1667184075.5,286047003.5,N
1667184095.3,286047003.0,N
1667184115.1,286047002.9,N
1667184135.9,286047006.0,N
1667184155.7,286047005.1,N
1667184175.6,286047005.0,N
1667184195.4,286047005.7,N
1667184215.2,286047005.3,N
1667184235.1,286047007.4,Y
1667184236.0,286047007.4,P
1667184255.8,286046999.7,N
1667184275.7,286046999.9,N
1667184295.5,286047000.3,N
1667184315.3,286046997.8,N
1667184335.2,286046995.0,N
1667184355.0,286046997.2,N
1667184355.9,286046997.2,N
1667184375.7,286047000.6,N
1667184395.6,286047000.9,N
1667184415.4,286047001.1,N
1667184435.3,286046998.6,N
1667184455.1,286047000.3,N
1667184456.0,286047000.3,N
1667184475.8,286047000.7,N
1667184495.7,286047000.9,N
1667184515.5,286046996.7,N
1667184535.4,286046995.2,N
1667184555.2,286046997.9,N
1667184575.0,286046997.9,N
1667184575.9,286046997.9,N
1667184595.8,286046998.3,N
1667184615.6,286047000.7,N
1667184635.4,286047002.3,N
1667184655.3,286046998.1,N
1667184675.1,286047000.8,N
1667184695.9,286047000.8,N
1667184715.7,286046998.2,N
1667184735.5,286046998.2,N
1667184755.4,286047000.9,N
1667184775.2,286047001.1,N
1667184795.0,286046999.7,N
1667184796.0,286046999.7,N
1667184815.8,286046999.9,N
1667184835.6,286046998.3,N
1667184855.5,286046998.4,N
1667184875.3,286047002.4,N
1667184895.1,286047000.3,N
1667184915.9,286047000.7,N
1667184935.7,286046999.7,N
1667184955.6,286047000.1,N
1667184975.4,286047002.8,N
1667184995.2,286047001.7,N
1667185015.1,286047001.4,N
1667185016.0,286047001.4,N
1667185035.8,286047003.8,N
1667185055.6,286047002.5,N
1667185075.5,286047004.4,N
1667185095.3,286047004.3,N
1667185115.2,286047004.1,N
1667185135.9,286047003.6,N
1667185155.7,286047003.2,N
1667185175.6,286047003.7,N
1667185195.4,286047004.2,N
